Regional Weather Roundup
Issued by NWS

Home | Current Version | Previous Version | Text Only | Print | Product List | Glossary Off
Versions: 1 2 3 4 5 6 7 8 9 10 11 12 13 14 15 16 17 18 19 20 21 22 23 24 25 26 27 28 29 30 31 32 33 34 35 36 37 38 39 40 41 42 43 44 45 46 47 48 49 50

000
ASUS43 KDTX 250801
RWRMI
MICHIGAN HOURLY REGIONAL WEATHER ROUNDUP
NATIONAL WEATHER SERVICE DETROIT/PONTIAC MI
400 AM EDT TUE APR 25 2017

NOTE: "FAIR" INDICATES FEW OR NO CLOUDS BELOW 12,000 FEET WITH NO
SIGNIFICANT WEATHER AND/OR OBSTRUCTION TO VISIBILITY.

MIZ047>049-052>055-059>063-066>070-074>076-081>083-250900-
SOUTHEAST LOWER MICHIGAN

CITY           SKY/WX    TMP DP  RH WIND       PRES   REMARKS
ADRIAN         MOCLDY    47  46  97 N6        29.86S
ALMA           CLEAR     46  42  86 E6        29.86F
ANN ARBOR      PTCLDY    49  44  83 N3        29.86S
BAD AXE        PTCLDY    46  36  68 SE7       29.92S
CARO           PTCLDY    47  37  69 E8        29.89S
DETROIT CITY   CLOUDY    51  44  77 E6        29.88F
DETROIT        MOCLDY    52  43  71 E5        29.88S
FLINT          CLOUDY    48  40  73 E6        29.87F
GROSSE ILE     CLOUDY    49  43  79 E3        29.86S
HILLSDALE      CLOUDY    50  45  81 E6        29.83F
HOWELL         CLOUDY    52  40  64 SE7       29.86F

CITY           SKY/WX    TMP DP  RH WIND       PRES   REMARKS
JACKSON        CLOUDY    52  45  77 SE10      29.84F
LAMBERTVILLE   CLEAR     53  47  81 E3        29.85S
LANSING        CLOUDY    53  41  63 SE8       29.85F
LAPEER         MOCLDY    47  38  69 CALM      29.90S
MASON          CLOUDY    51  44  75 SE6       29.85F
MONROE         CLOUDY    51  47  85 E8        29.85S
MT. CLEMENS    MOCLDY    50  43  79 E6        29.87F
PONTIAC        CLOUDY    50  40  68 E7        29.87F
PORT HOPE        N/A     49  37  63 SE13G23   29.91S
PORT HURON     CLOUDY    46  37  71 E5        29.90S
TRI CITIES     CLOUDY    48  40  73 E8        29.89S
MIDLAND        FAIR      47  38  71 E6        29.87F
TROY           MOCLDY    50  39  66 NE5       29.90S
SAGINAW HB     PTCLDY    46  36  66 E5        29.88S
$$
MIZ043>046-050>051-056>058-064>065-071>073-077>080-250900-
SOUTHWEST LOWER MICHIGAN

CITY           SKY/WX    TMP DP  RH WIND       PRES   REMARKS
BATTLE CREEK   PTCLDY    53  46  77 SE8       29.82F
BENTON HARBOR  CLEAR     54  41  61 SE10      29.77F
BIG RAPIDS     CLOUDY    46  40  79 SE5       29.83F
COLDWATER      CLOUDY    53  46  78 SE9       29.82F
FREMONT        FAIR      51  38  60 E8        29.80F
HOLLAND        CLEAR     54  41  61 SE9       29.80F
GRAND RAPIDS   CLEAR     52  42  69 SE10      29.82F
IONIA          FAIR      47  40  78 E8        29.83F
KALAMAZOO      CLEAR     52  42  69 E3        29.81F
LUDINGTON      CLOUDY    52  40  64 SE10      29.79F
MARSHALL       CLOUDY    51  45  80 E5        29.82F
MOUNT PLEASANT CLEAR     42  40  90 E5        29.86S
MUSKEGON       CLEAR     53  38  56 E9        29.79F
SOUTH HAVEN    CLEAR     54  42  63 SE10      29.78F
$$
MIZ016>042-250900-
NORTHERN LOWER MICHIGAN

CITY           SKY/WX    TMP DP  RH WIND       PRES   REMARKS
ALPENA         CLEAR     41  38  89 E7        29.93F
BEAVER ISLAND  MOCLDY    41  36  81 E14       29.84F
BELLAIRE       CLOUDY    51  36  54 CALM      29.85F
CADILLAC       CLOUDY    44  38  77 E3        29.84S
CHARLEVOIX     MOCLDY    47  37  67 E5        29.87F
FRANKFORT      CLOUDY    55  37  51 SE10      29.79F
GAYLORD        CLOUDY    43  33  68 SE8       29.87F
GRAYLING       CLEAR     39  35  84 E6        29.87F WCI  35
HARBOR SPRINGS PTCLDY    41  35  78 E13G18    29.88S
HOUGHTON LAKE  CLEAR     46  37  71 SE8       29.87F
MANISTEE       PTCLDY    54  39  57 E9        29.79F
OSCODA         CLOUDY    46  36  68 CALM      29.92F
PELLSTON       PTCLDY    41  33  73 SE8       29.89F
ROGERS CITY    CLOUDY    40  36  86 SE6       29.93S
TRAVERSE CITY  PTCLDY    51  38  60 CALM      29.82F
$$
MIZ007>008-015-250900-
EASTERN UPPER MICHIGAN

CITY           SKY/WX    TMP DP  RH WIND       PRES   REMARKS
KINROSS        MOCLDY    40  31  70 E14       29.92F WCI  32
MACKINAC ISLAN CLOUDY    37  35  92 E15G22    29.89F WCI  28
NEWBERRY       PTCLDY    42  34  73 SE9       29.86F
S. S. MARIE    MOCLDY    45  30  55 SE12G23   29.92F
MUNISING         N/A     47  36  65 S6        29.79F
$$
MIZ004>006-011>014-085-250900-
CENTRAL UPPER MICHIGAN

CITY           SKY/WX    TMP DP  RH WIND       PRES   REMARKS
MANISTIQUE     CLOUDY    44  38  79 E14G20    29.83S
ESCANABA       CLOUDY    46  40  79 E10       29.79F
MENOMINEE      CLOUDY    55  35  47 S12       29.73F
SAWYER-GWINN   CLOUDY    45  37  74 SE10      29.77F
$$
MIZ001>003-009>011-084-250900-
WESTERN UPPER MICHIGAN

CITY           SKY/WX    TMP DP  RH WIND       PRES   REMARKS
IRON MOUNTAIN  CLOUDY    43  34  70 SE3       29.74F
HOUGHTON       CLOUDY    47  35  63 SE5       29.72F
COPPER HARBOR    N/A     46  36  68 SW9G22    29.73F
IRONWOOD       CLOUDY    56  32  40 SE16G24   29.62F
$$

ABBREVIATIONS USED IN REMARKS
   TC - TEMPERATURE IN CELSIUS
  WCI - WIND CHILL INDEX
   HX - HEAT INDEX
  VSB - VISIBILITY




USA.gov is the U.S. government's official web portal to all federal, state and local government web resources and services.